Regional Weather Roundup
Issued by NWS

Home | Current Version | Previous Version | Text Only | Print | Product List | Glossary Off
Versions: 1 2 3 4 5 6 7 8 9 10 11 12 13 14 15 16 17 18 19 20 21 22 23 24 25 26 27 28 29 30 31 32 33 34 35 36 37 38 39 40 41 42 43 44 45 46 47 48 49 50

000
ASUS45 KBOU 060807
RWRCO

WEATHER ROUNDUP FOR COLORADO
NATIONAL WEATHER SERVICE DENVER/BOULDER CO
200 AM MDT WED MAY 06 2015

NOTE: "FAIR" INDICATES FEW OR NO CLOUDS BELOW 12000 FEET WITH NO
SIGNIFICANT WEATHER AND/OR OBSTRUCTIONS TO VISIBILITY.

COZ001>005-013-030-031-060900-
...NORTHWEST COLORADO...

CITY           SKY/WX    TMP DP  RH WIND       PRES   REMARKS
CRAIG          CLOUDY    50  46  86 W9        29.81S
HAYDEN         CLOUDY    48  43  81 W8        29.81S
MEEKER         RAIN      47  44  90 CALM      29.84S
MOUNT WERNER   NOT AVBL
STEAMBOAT SPGS CLOUDY    44  43  96 E5        29.81F
WALDEN         CLOUDY    41  37  87 CALM      29.83F
$$

COZ006>008-011-060900-
...WEST CENTRAL VALLEYS...

CITY           SKY/WX    TMP DP  RH WIND       PRES   REMARKS
GRAND JUNCTION LGT RAIN  51  51 100 N6        29.81F
MONTROSE       LGT RAIN  50  47  89 SE8       29.86F
EAGLE          CLOUDY    45  43  93 E6        29.88S
RIFLE          LGT RAIN  49  47  93 NE5       29.83F
DELTA          CLOUDY    54  51  92 CALM      29.83F
NUCLA          CLOUDY    50  46  87 SW5       29.91S
$$

COZ017>023-064>068-060900-
...SOUTHWEST COLORADO...

CITY           SKY/WX    TMP DP  RH WIND       PRES   REMARKS
DURANGO        CLOUDY    46  45  96 S3        29.93S
CORTEZ         LGT RAIN  48  47  96 CALM      29.91S
PAGOSA SPRINGS DRIZZLE   45  44  97 SW7       29.95F
TELLURIDE      LGT RAIN  39  39  98 CALM      29.99S
WOLF CREEK PAS NOT AVBL
$$

COZ009-010-012-014-032>034-037-058>063-060900-
...CENTRAL COLORADO...

CITY           SKY/WX    TMP DP  RH WIND       PRES   REMARKS
ASPEN          LGT RAIN N/A N/A N/A CALM      29.88F
BUENA VISTA    NOT AVBL
COPPER MTN     CLOUDY    34  30  86 W8        29.98F WCI  27
BERTHOUD PASS  MIX PCPN  28  21  74 NW16G24   29.97F VSB<1/4 WCI  17
COTTONWOOD PAS CLOUDY    39  37  93 E5        29.90F
GUNNISON       CLOUDY    43  37  81 N3        29.91F
KREMMLING      DRIZZLE   39  34  81 W7        29.85F
LEADVILLE      CLOUDY    35  34  96 N9        29.90F WCI  28
MONARCH PASS   FOG       30  28  93 MISG      30.07F VSB<1/4
SALIDA         CLOUDY    44  42  91 N8        29.90F
SUNLIGHT       LGT SNOW  34  34 100 CALM      29.99F VSB 3/4
WILKERSON PASS FOG       32  32 100 W7        29.95F VSB 3/4 WCI  26
$$

COZ069>075-060900-
...SAN LUIS VALLEY/SANGRE DE CRISTO MOUNTAINS...

CITY           SKY/WX    TMP DP  RH WIND       PRES   REMARKS
ALAMOSA        CLOUDY    44  39  82 CALM      29.87F
LA VETA PASS   DRIZZLE  N/A N/A N/A MISG      29.89F
SAGUACHE       DRIZZLE   41  41 100 CALM      29.90S
$$

COZ035-036-038>040-060900-
...NORTHERN COLORADO FRONT RANGE...

CITY           SKY/WX    TMP DP  RH WIND       PRES   REMARKS
DENVER INTL AP LGT RAIN  50  48  93 W12       29.72F
DMNS CITY PARK   N/A     49  47  95 SW3       29.73S
AURORA         MOCLDY    47  47 100 SW6       29.75F
FRONT RANGE AP DRIZZLE   50  50 100 W9        29.73F
ERIE MUNI ARPT CLOUDY    49  47  96 CALM      29.72F
BOULDER MUN AP CLOUDY    48  48 100 SW3       29.72F
CENTENNIAL     CLOUDY    48  47  96 CALM      29.75F
BROOMFIELD     CLOUDY    46  46 100 W3        29.74F FOG
FORT COLLINS   CLOUDY    50  46  87 N8        29.73F
LONGMONT       CLOUDY    50  48  93 W3        29.74F
$$

COZ041-046-047-076>085-087-088-060900-
...PIKES PEAK/PALMER DIVIDE AND SOUTHERN FOOTHILLS...

CITY           SKY/WX    TMP DP  RH WIND       PRES   REMARKS
COLO. SPRINGS  MOCLDY    46  45  96 E5        29.78F
A. F. ACADEMY  DRIZZLE   45  45 100 E2        29.77F
ELLICOTT       MOCLDY   N/A N/A N/A SW6       29.76F FOG
FALCON         CLOUDY    44  43  96 SW3       29.80F
FORT CARSON    PTCLDY    46  46 100 S7        29.75F
LIMON          CLOUDY    49  46  90 S7        29.75S
MONUMENT HILL  DRIZZLE   41  41 100 S5        29.78F
TRINIDAD       CLOUDY    47  45  93 NW7       29.77F
$$

COZ042>045-048>051-090-091-060900-
...NORTHEAST COLORADO...

CITY           SKY/WX    TMP DP  RH WIND       PRES   REMARKS
GREELEY ARPT     N/A    N/A N/A N/A MISG        N/A
AKRON          CLOUDY    51  51 100 SE17      29.67F FOG
BURLINGTON     PTCLDY    51  49  92 S12       29.74F
WRAY           CLEAR    N/A N/A N/A SE9       29.71F
STERLING       CLOUDY    54  54 100 SE6       29.67F
HOLYOKE        NOT AVBL
FORT MORGAN    CLOUDY    51  49  94 NE10      29.67S FOG
$$

COZ086-089-092>099-060900-
...SOUTHEAST COLORADO...

CITY           SKY/WX    TMP DP  RH WIND       PRES   REMARKS
PUEBLO         CLOUDY    50  49  96 N5        29.73F
LA JUNTA       CLOUDY    54  50  86 CALM      29.72F
LAMAR          CLOUDY    52  50  93 CALM      29.70F
SPRINGFIELD      N/A     46  46 100 S7        29.73F
$$


USA.gov is the U.S. government's official web portal to all federal, state and local government web resources and services.